• Em Portugal
  • Lista de países
  • Para 7 dias
  • Temperatura da água
  • Mapas de satélite
  • Mapa do tempo
  • Widgets de tempo
  • user-avatar
    Iniciar Sessão

    Previsão horária em Dhalkuta

    Hoje, 19 Fevereiro, Segunda-feira

    Tempo Temperatura Precipitação Vento Pressão Humidade
    00:00 +20°C° 0 mm 1 m/s 752 mmHg 64%
    01:00 +20°C° 0 mm 1 m/s 752 mmHg 65%
    02:00 +20°C° 0 mm 1 m/s 752 mmHg 66%
    03:00 +19°C° 0 mm 1 m/s 752 mmHg 68%
    04:00 +19°C° 0 mm 1 m/s 752 mmHg 69%
    05:00 +19°C° 0 mm 1 m/s 752 mmHg 70%
    06:00 +17°C° 0 mm 2 m/s 752 mmHg 72%
    07:00 +19°C° 0 mm 2 m/s 752 mmHg 66%
    08:00 +21°C° 0 mm 1 m/s 753 mmHg 61%
    09:00 +23°C° 0 mm 1 m/s 753 mmHg 55%
    10:00 +24°C° 0 mm 2 m/s 753 mmHg 49%
    11:00 +26°C° 0 mm 2 m/s 753 mmHg 44%
    12:00 +28°C° 0 mm 2 m/s 753 mmHg 38%
    13:00 +29°C° 0 mm 3 m/s 752 mmHg 35%
    14:00 +29°C° 0 mm 3 m/s 752 mmHg 32%
    15:00 +30°C° 0 mm 4 m/s 751 mmHg 29%
    16:00 +29°C° 0 mm 3 m/s 751 mmHg 33%
    17:00 +27°C° 0 mm 3 m/s 751 mmHg 37%
    18:00 +26°C° 0 mm 2 m/s 751 mmHg 41%
    19:00 +24°C° 0 mm 2 m/s 752 mmHg 44%
    20:00 +23°C° 0 mm 2 m/s 752 mmHg 47%
    21:00 +21°C° 0 mm 2 m/s 753 mmHg 50%
    22:00 +21°C° 0 mm 2 m/s 753 mmHg 52%
    23:00 +20°C° 0 mm 2 m/s 753 mmHg 54%

    Amanhã, 20 Fevereiro, Terça-feira

    Tempo Temperatura Precipitação Vento Pressão Humidade
    00:00 +20°C° 0 mm 2 m/s 753 mmHg 56%
    01:00 +19°C° 0 mm 2 m/s 753 mmHg 57%
    02:00 +19°C° 0 mm 2 m/s 752 mmHg 58%
    03:00 +18°C° 0 mm 2 m/s 752 mmHg 59%
    04:00 +18°C° 0 mm 2 m/s 752 mmHg 59%
    05:00 +18°C° 0 mm 2 m/s 752 mmHg 59%
    06:00 +19°C° 0 mm 1 m/s 752 mmHg 59%
    07:00 +19°C° 0 mm 2 m/s 753 mmHg 54%
    08:00 +21°C° 0 mm 2 m/s 753 mmHg 49%
    09:00 +24°C° 0 mm 2 m/s 754 mmHg 44%
    10:00 +26°C° 0 mm 2 m/s 753 mmHg 40%
    11:00 +27°C° 0 mm 2 m/s 753 mmHg 36%
    12:00 +29°C° 0 mm 2 m/s 753 mmHg 32%
    13:00 +29°C° 0 mm 2 m/s 752 mmHg 30%
    14:00 +30°C° 0 mm 2 m/s 751 mmHg 28%
    15:00 +31°C° 0 mm 2 m/s 750 mmHg 26%
    16:00 +29°C° 0 mm 2 m/s 750 mmHg 29%
    17:00 +28°C° 0 mm 2 m/s 751 mmHg 33%
    18:00 +26°C° 0 mm 2 m/s 751 mmHg 36%
    19:00 +25°C° 0 mm 2 m/s 751 mmHg 38%
    20:00 +24°C° 0 mm 2 m/s 752 mmHg 40%
    21:00 +23°C° 0 mm 2 m/s 752 mmHg 43%
    22:00 +21°C° 0 mm 2 m/s 752 mmHg 45%
    23:00 +21°C° 0 mm 2 m/s 752 mmHg 46%

    Depois de amanhã, 21 Fevereiro, Quarta-feira

    Tempo Temperatura Precipitação Vento Pressão Humidade
    00:00 +20°C° 0 mm 2 m/s 752 mmHg 48%
    01:00 +20°C° 0 mm 2 m/s 751 mmHg 49%
    02:00 +19°C° 0 mm 2 m/s 751 mmHg 50%
    03:00 +19°C° 0 mm 2 m/s 751 mmHg 51%
    04:00 +20°C° 0 mm 1 m/s 751 mmHg 51%
    05:00 +19°C° 0 mm 1 m/s 751 mmHg 51%
    06:00 +19°C° 0 mm 1 m/s 750 mmHg 52%
    07:00 +21°C° 0 mm 1 m/s 751 mmHg 47%
    08:00 +23°C° 0 mm 1 m/s 752 mmHg 43%
    09:00 +25°C° 0 mm 1 m/s 752 mmHg 38%
    10:00 +26°C° 0 mm 1 m/s 752 mmHg 36%
    11:00 +28°C° 0 mm 2 m/s 752 mmHg 33%
    12:00 +29°C° 0 mm 2 m/s 752 mmHg 31%
    13:00 +30°C° 0 mm 2 m/s 751 mmHg 30%
    14:00 +30°C° 0 mm 2 m/s 750 mmHg 28%
    15:00 +31°C° 0 mm 2 m/s 749 mmHg 27%
    16:00 +29°C° 0 mm 2 m/s 749 mmHg 30%
    17:00 +28°C° 0 mm 2 m/s 750 mmHg 33%
    18:00 +27°C° 0 mm 2 m/s 750 mmHg 36%
    19:00 +25°C° 0 mm 2 m/s 750 mmHg 39%
    20:00 +24°C° 0 mm 2 m/s 751 mmHg 42%
    21:00 +23°C° 0 mm 2 m/s 751 mmHg 45%
    22:00 +23°C° 0 mm 2 m/s 751 mmHg 47%
    23:00 +21°C° 0 mm 2 m/s 751 mmHg 49%

    22 Fevereiro, Quinta-feira

    Tempo Temperatura Precipitação Vento Pressão Humidade
    00:00 +21°C° 0 mm 2 m/s 751 mmHg 50%
    01:00 +20°C° 0 mm 2 m/s 751 mmHg 51%
    02:00 +21°C° 0 mm 1 m/s 751 mmHg 53%
    03:00 +20°C° 0 mm 1 m/s 750 mmHg 54%
    04:00 +20°C° 0 mm 1 m/s 750 mmHg 54%
    05:00 +20°C° 0 mm 1 m/s 750 mmHg 54%
    06:00 +20°C° 0 mm 1 m/s 751 mmHg 54%
    07:00 +21°C° 0 mm 2 m/s 751 mmHg 49%
    08:00 +24°C° 0 mm 2 m/s 752 mmHg 44%
    09:00 +25°C° 0 mm 2 m/s 752 mmHg 39%
    10:00 +27°C° 0 mm 2 m/s 752 mmHg 37%
    11:00 +28°C° 0 mm 3 m/s 752 mmHg 34%
    12:00 +30°C° 0 mm 3 m/s 752 mmHg 31%
    13:00 +30°C° 0 mm 3 m/s 751 mmHg 30%
    14:00 +31°C° 0 mm 2 m/s 750 mmHg 29%
    15:00 +31°C° 0 mm 2 m/s 749 mmHg 28%
    16:00 +30°C° 0 mm 2 m/s 749 mmHg 31%
    17:00 +28°C° 0 mm 2 m/s 749 mmHg 35%
    18:00 +27°C° 0 mm 1 m/s 750 mmHg 38%
    19:00 +26°C° 0 mm 2 m/s 750 mmHg 40%
    20:00 +25°C° 0 mm 2 m/s 751 mmHg 43%
    21:00 +23°C° 0 mm 2 m/s 752 mmHg 45%
    22:00 +23°C° 0 mm 2 m/s 752 mmHg 47%
    23:00 +21°C° 0 mm 2 m/s 752 mmHg 48%

    23 Fevereiro, Sexta-feira

    Tempo Temperatura Precipitação Vento Pressão Humidade
    00:00 +21°C° 0 mm 2 m/s 752 mmHg 50%
    01:00 +21°C° 0 mm 2 m/s 752 mmHg 50%
    02:00 +20°C° 0 mm 2 m/s 751 mmHg 50%
    03:00 +20°C° 0 mm 2 m/s 751 mmHg 51%
    04:00 +19°C° 0 mm 2 m/s 751 mmHg 51%
    05:00 +19°C° 0 mm 2 m/s 751 mmHg 50%
    06:00 +19°C° 0 mm 2 m/s 751 mmHg 50%
    07:00 +21°C° 0 mm 2 m/s 752 mmHg 46%
    08:00 +24°C° 0 mm 2 m/s 752 mmHg 41%
    09:00 +26°C° 0 mm 2 m/s 753 mmHg 37%
    10:00 +27°C° 0 mm 2 m/s 753 mmHg 35%
    11:00 +29°C° 0 mm 2 m/s 753 mmHg 33%
    12:00 +30°C° 0 mm 2 m/s 752 mmHg 30%
    13:00 +31°C° 0 mm 2 m/s 752 mmHg 30%
    14:00 +31°C° 0 mm 2 m/s 751 mmHg 29%
    15:00 +32°C° 0 mm 2 m/s 750 mmHg 28%
    16:00 +30°C° 0 mm 2 m/s 750 mmHg 31%
    17:00 +29°C° 0 mm 2 m/s 751 mmHg 34%
    18:00 +28°C° 0 mm 2 m/s 751 mmHg 37%
    19:00 +27°C° 0 mm 2 m/s 751 mmHg 40%
    20:00 +26°C° 0 mm 2 m/s 752 mmHg 42%
    21:00 +24°C° 0 mm 2 m/s 753 mmHg 45%
    22:00 +24°C° 0 mm 2 m/s 753 mmHg 47%
    23:00 +23°C° 0 mm 2 m/s 753 mmHg 48%

    24 Fevereiro, Sábado

    Tempo Temperatura Precipitação Vento Pressão Humidade
    00:00 +23°C° 0 mm 2 m/s 753 mmHg 50%
    01:00 +21°C° 0 mm 2 m/s 753 mmHg 50%
    02:00 +21°C° 0 mm 2 m/s 753 mmHg 51%
    03:00 +21°C° 0 mm 2 m/s 752 mmHg 52%
    04:00 +20°C° 0 mm 2 m/s 753 mmHg 52%
    05:00 +20°C° 0 mm 2 m/s 753 mmHg 52%
    06:00 +20°C° 0 mm 2 m/s 753 mmHg 52%
    07:00 +23°C° 0 mm 2 m/s 754 mmHg 47%
    08:00 +25°C° 0 mm 2 m/s 754 mmHg 43%
    09:00 +27°C° 0 mm 2 m/s 755 mmHg 38%
    10:00 +28°C° 0 mm 3 m/s 754 mmHg 35%
    11:00 +30°C° 0 mm 3 m/s 754 mmHg 33%
    12:00 +31°C° 0 mm 3 m/s 754 mmHg 30%
    13:00 +33°C° 0 mm 3 m/s 753 mmHg 29%
    14:00 +32°C° 0 mm 2 m/s 753 mmHg 28%
    15:00 +32°C° 0 mm 2 m/s 752 mmHg 27%
    16:00 +31°C° 0 mm 2 m/s 752 mmHg 30%
    17:00 +30°C° 0 mm 1 m/s 752 mmHg 33%
    18:00 +28°C° 0 mm 1 m/s 753 mmHg 35%
    19:00 +27°C° 0 mm 1 m/s 753 mmHg 37%
    20:00 +26°C° 0 mm 2 m/s 754 mmHg 39%
    21:00 +25°C° 0 mm 2 m/s 754 mmHg 41%
    22:00 +24°C° 0 mm 2 m/s 754 mmHg 44%
    23:00 +24°C° 0 mm 2 m/s 754 mmHg 46%
    Mostrar mais